Voltar ao catálogo

COSMOS 2143

AtivoMilitarPO
NORAD 21299·PAYLOAD·🇷🇺 Russia

Lançado May 16, 1991 de Plesetsk Cosmodrome

Loading…

Próximas Passagens (próximas 24 horas)

TLE

AtualizadoSource: Space-Track

Época: Sep 14, 2026, 10:54 UTC

1 21299U 91033A   26257.45444543 -.00000001  00000-0 -61733-4 0  9991
2 21299  82.5699 245.5842 0012271 205.3876 323.1309 12.63930076629845

Acompanhe COSMOS 2143 em tempo real com AllMySat

Download on the App Store